Probability
0 0 0 0 0 0 0 0 0 0 0 0 0 0 0 0 0 0 0 0 0 0 0 0 0 0 0 0 0 0 0 0 0 0 0 0 0 0
0 0 0 0 0 0 0 0 0 0 0 0 0 0 0 0 0 0 0 0 0 0 0 0 0 0 0 0 0 0 0 0 0 0 0 0 0 0
0 0 0 0 0 0 0 0 0 0 0 0 0 0 0 0 0 0 0 0 0 0 0 0 0 0 0 0 0 0 0 0 0 0 0 0 0 0
0 0 0 0 0 0 0 0 0 0 0 0 0 0 0 0 0 0 0 0 0 0 0 0 0 0 0 0 0 0 0 0 0 0 0 0 0 0
0 0 0 0 0 0 0 0 0 0 0 0 0 0 0 0 0 0 0 0 0 0 0 0 0 0 0 0 0 0 0 0 0 0 0 0 0 0
0 0 0 0 0 0 0 0 0 0 0 0 0 0 0 0 0 0 0 0 0 0 0 0 0 0 0 0 0 0 0 0 0 0 0 0 0 0
0 0 0 0 0 0 0 0 0 0 0 0 0 0 0 0 0 0 0 0 0 0 0 0 0 0 0 0 0 0 0 0 0 0 0 0 0 0
0 0 0 0 0 0 0 0 0 0 0 0 0 0 0 0 0 0 0 0 0 0 0 0 0 0 0 0 0 0 0 0 0 0 0 0 0 0
0 0 0 0 0 0 0 0 0 0 0 0 0 0 0 0 0 0 0 0 0 0 0 0 0 0 0 0 0 0 0 0 0 0 0 0 0 0
0 0 0 0 0 0 0 0 0 0 0 0 0 0 0 0 0 0 0 0 0 0 0 0 0 0 0 0 0 0 0 0 0 0 0 0 0 0
0 0 0 0 0 0 0 0 0 0 0 0 0 0 0 0 0 0 0 0 0 0 0 0 0 0 0 0 0 0 0 0 0 0 0 0 0 0
0 0 0 0 0 0 0 0 0 0 0 0 0 0 0 0 0 0 0 0 0 0 0 0 0 0 0 0 0 0 0 0 0 0 0 0 0 0
0 0 0 0 0 0 0 0 0 0 0 0 0 0 0 0 0 0 0 0 0 0 0 0 0 0 0 0 0 0 0 0 0 0 0 0 0 0
0 0 0 0 0 0 0 0 0 0 0 0 0 0 0 0 0 0 0 0 0 0 0 0 0 0 0 0 0 0 0 0 0 0 0 0 0 0
0 0 0 0 0 0 0 0 0 0 0 0 0 0 0 0 0 0 0 0 0 0 0 0 0 0 0 0 0 0 0 0 0 0 0 0 0 0
0 0 0 0 0 0 0 0 0 0 0 0 0 0 0 0 0 0 0 0 0 0 0 0 0 0 0 0 0 0 0 0 0 0 0 0 0 0
0 0 0 0 0 0 0 0 0 0 0 0 0 0 0 0 0 0 0 0 0 0 0 0 0 0 0 0 0 0 0 0 0 0 0 0 0 0
0 0 0 0 0 0 0 0 0 0 0 0 0 0 0 0 0 0 0 0 0 0 0 0 0 0 0 0 0 0 0 0 0 0 0 0 0 0
0 0 0 0 0 0 0 0 0 0 0 0 0 0 0 0 0 0 0 0 0 0 0 0 0 0 0 0 0 0 0 0 0 0 0 0 0 0
0 0 0 0 0 0 0 0 0 0 0 0 0 0 0 0 0 0 0 0 0 0 0 0 0 0 0 0 0 0 0 0 0 0 0 0 0 0
0 0 0 0 0 0 0 0 0 0 0 0 0 0 0 0 0 0 0 0 0 0 0 0 0 0 0 0 0 0 0 0 0 0 0 0 0 0
0 0 0 0 0 0 0 0 0 0 0 0 0 0 0 0 0 0 0 0 0 0 0 0 0 0 0 0 0 0 0 0 0 0 0 0 0 0
0 0 0 0 0 0 0 0 0 0 0 0 0 0 0 0 0 0 0 0 0 0 0 0 0 0 0 0 0 0 0 0 0 0 0 0 0 0
Wind_Speed
8 8 8 7 7 7 8 8 9 11 11 10 8 8 8 9 12 12 14 17 20 21 22 22 22 22 23 23 24 24 24 24 24 25 26 27 27 27
7 9 9 7 7 7 8 8 9 11 13 9 10 12 12 11 15 15 15 20 21 21 21 21 22 23 23 23 24 24 24 24 24 25 26 26 27 27
9 10 11 10 9 8 8 9 10 10 14 13 12 12 15 15 13 13 13 14 13 19 21 21 22 23 23 24 23 24 24 24 24 24 25 25 25 26
11 11 12 9 12 10 9 11 10 11 13 17 13 12 15 14 14 15 13 12 12 17 21 22 23 24 23 23 23 23 23 23 23 24 24 24 24 24
12 12 12 12 13 11 12 11 10 11 12 13 14 12 11 11 13 14 14 13 13 14 18 20 21 22 22 23 23 23 22 22 22 23 23 23 23 23
12 12 13 13 14 14 12 13 12 12 12 13 13 12 11 12 11 11 11 11 11 11 14 16 19 21 22 22 22 21 21 21 21 22 22 22 21 22
13 13 14 15 17 15 12 12 12 11 11 12 12 12 11 10 10 10 11 11 11 11 11 11 11 11 12 15 18 18 19 20 21 21 21 21 21 21
14 14 14 15 17 20 22 22 20 16 14 13 13 13 15 13 11 10 11 12 12 8 10 10 10 11 11 11 15 18 19 20 20 20 20 20 20 20
14 13 12 12 16 14 17 20 20 23 23 18 16 16 16 14 14 14 13 13 12 10 10 12 11 12 11 11 18 19 20 19 19 19 19 19 19 19
14 14 14 14 13 14 14 15 16 16 17 15 14 16 16 15 14 14 14 13 12 10 10 11 11 11 11 10 15 17 17 17 17 17 17 17 17 17
14 14 14 15 18 20 16 15 16 15 17 22 23 23 25 25 20 11 9 9 11 10 8 8 9 10 10 10 10 12 13 14 15 15 15 16 15 14
12 12 15 17 19 21 16 15 16 15 14 14 16 18 17 17 20 13 9 9 10 9 6 6 8 7 7 6 6 6 7 10 12 13 13 13 13 9
11 10 10 17 20 22 20 16 17 18 14 13 11 11 11 9 9 8 7 8 9 9 6 5 6 7 7 7 7 7 7 7 7 7 9 10 10 9
12 11 11 19 21 23 18 19 22 20 11 10 10 9 9 8 7 7 7 8 9 11 10 8 7 8 9 9 8 6 6 6 7 6 6 7 7 9
12 17 20 23 22 17 18 21 17 11 9 10 10 10 8 8 7 7 7 8 9 10 10 11 10 9 9 9 9 8 7 6 6 6 5 4 5 5
12 15 20 20 17 17 16 13 9 9 9 9 9 9 8 8 7 7 7 6 7 7 8 9 9 9 9 9 8 8 7 6 5 5 5 5 5 4
13 10 10 10 10 9 9 9 8 8 8 8 8 8 8 8 7 6 6 7 7 7 6 5 6 7 9 8 8 8 7 7 6 5 5 5 5 4
16 11 10 10 10 9 9 8 8 8 8 8 8 8 8 8 8 6 6 7 7 7 6 5 4 4 5 6 9 8 7 6 5 5 5 5 5 4
12 10 10 10 9 9 8 8 8 8 7 7 8 8 8 8 7 7 7 7 7 6 6 5 5 5 6 6 4 7 6 5 4 4 4 4 4 4
9 10 10 9 9 8 8 8 8 8 7 7 8 8 8 8 7 7 7 7 7 6 6 5 5 5 6 5 4 3 5 5 4 4 3 3 3 5
9 9 9 9 9 9 9 9 9 8 8 8 8 8 8 8 8 7 7 9 8 7 7 6 4 5 4 4 5 4 3 5 5 4 4 3 3 3
10 10 9 9 9 9 9 9 9 9 9 8 8 8 7 7 8 9 7 7 6 6 7 5 4 4 4 5 5 4 3 3 4 6 7 6 3 2
10 10 10 10 9 9 9 9 10 9 8 8 7 7 7 7 7 7 7 7 7 7 6 5 4 4 5 5 5 4 4 4 3 3 3 4 6 6
Wind_Direction
259 260 260 261 259 260 260 262 272 286 289 292 290 289 290 289 292 290 290 291 293 292 290 290 291 291 290 289 288 286 285 283 282 281 279 277 276 275
260 262 262 262 261 258 257 259 258 267 278 283 287 287 289 285 287 288 287 290 286 286 287 288 290 290 290 288 287 286 285 283 282 281 279 277 276 275
260 260 263 265 265 262 260 259 259 262 272 280 282 286 288 286 286 285 286 287 286 285 286 288 289 289 289 287 287 286 285 284 283 282 281 280 278 277
266 265 266 267 264 265 263 262 264 265 271 281 285 287 286 286 286 286 286 285 284 286 286 287 288 287 287 287 286 285 284 284 283 283 282 281 281 280
268 268 269 269 268 267 267 268 268 270 270 276 282 284 284 282 284 281 282 282 283 284 284 284 285 285 286 286 285 284 284 284 283 282 281 280 280 281
268 266 267 267 268 271 271 271 272 272 271 273 277 281 280 281 280 282 284 283 284 286 284 284 284 284 283 283 283 283 283 283 282 281 279 277 276 277
269 267 265 264 266 269 269 270 269 268 270 272 275 278 279 280 279 281 282 287 285 284 283 283 286 285 286 283 281 278 279 281 280 279 278 276 275 274
272 272 271 267 267 268 269 271 271 272 273 273 275 276 279 281 282 280 282 285 287 282 283 285 288 285 282 279 281 284 283 281 280 279 278 276 275 274
274 276 275 273 275 274 275 275 274 272 270 272 274 275 279 280 281 280 276 276 278 283 286 284 284 281 281 279 281 282 282 281 282 282 280 278 276 275
273 274 275 277 275 277 278 276 273 271 269 268 267 272 274 276 274 274 276 276 276 272 269 278 283 283 285 284 283 281 282 283 284 284 284 283 280 278
274 272 273 275 277 278 278 277 278 276 273 270 270 273 275 276 274 273 272 274 277 277 273 272 281 287 289 286 281 280 282 284 285 286 286 286 285 284
277 274 271 273 278 281 279 279 279 282 283 282 277 276 275 274 274 268 269 272 279 283 276 271 280 292 290 282 287 292 287 283 286 288 287 286 284 280
280 280 277 279 281 282 282 278 278 283 285 283 280 278 274 268 263 257 252 257 268 269 271 273 276 278 275 285 289 288 287 290 291 289 286 282 282 281
282 282 282 285 286 286 285 282 285 288 284 281 279 279 275 270 264 260 251 250 254 263 270 268 267 271 275 278 283 283 284 288 287 286 287 285 279 275
282 284 288 290 291 288 284 286 287 283 280 278 279 280 280 279 276 270 259 252 254 255 256 254 255 260 261 269 276 281 288 286 279 280 284 287 290 287
285 287 289 288 284 282 283 282 277 274 277 278 280 282 284 280 274 269 268 266 266 265 248 244 248 254 260 263 268 274 275 276 279 282 285 284 281 279
292 286 281 280 279 278 277 276 274 273 274 274 277 280 280 277 272 268 267 267 265 270 268 251 239 243 253 263 264 262 266 268 269 276 279 279 276 273
294 285 283 283 282 282 281 279 276 274 275 277 277 278 279 277 276 271 266 264 266 268 271 270 260 258 251 242 235 255 261 266 270 271 270 275 282 283
288 282 282 284 284 283 282 282 281 279 277 275 274 274 276 275 273 271 268 266 266 267 269 266 259 258 267 272 227 220 254 269 270 265 264 268 279 293
279 279 281 282 282 281 282 282 280 279 273 270 270 270 270 271 270 268 268 267 270 271 268 258 250 252 265 283 288 262 246 262 269 271 274 273 277 284
284 282 282 282 281 281 280 279 277 275 273 272 270 269 267 266 266 266 267 267 265 266 266 264 260 264 267 262 258 251 247 249 264 273 279 276 278 277
282 282 281 281 281 279 278 276 274 271 271 267 266 267 266 263 264 264 264 265 262 262 267 268 256 247 241 246 257 266 263 257 255 257 263 269 278 295
283 284 283 282 280 278 276 274 273 272 270 268 267 266 266 263 262 262 260 258 260 260 262 263 254 242 242 248 254 260 265 260 256 254 251 252 252 260